Location: Bushey
(51.6333°N, 0.3667°W)
Time: 19:38:27
(UTC+00:00)

BREEZE-M DEB (TANK) - Pass Details

Date: 03 March 2021
Orbit: 308 x 15403 km, 49.5° (Epoch: 15 April)

Event Time Altitude Azimuth Distance (km) Brightness Sun altitude
Rises 19:46:37 0° 268° (W) 2,088 6.7 -19.5°
Reaches altitude 10° 19:48:00 10° 265° (W) 1,395 5.4 -19.7°
Maximum altitude 19:50:34 64° 182° (S) 615 2.4 -20.0°
Enters shadow 19:51:26 48° 125° (SE) 829 2.8 -20.2°
